Home > Weather > Differdange > Past weeks

Flag for Luxembourg Past Weather in Differdange, Luxembourg — Yesterday and Last 2 Weeks

Now
68 °F

Partly sunny.


Feels Like: 68 °F
Forecast: 55 / 67 °F
Wind: 9 mph from Southwest

Location: Luxembourg Airport

Current Time: Jul 28, 2016 at 2:26:52 PM

Latest Report: Jul 28, 2016 at 1:50 PM


Visibility: N/A

Pressure: 30.04 "Hg

Humidity: 73%

Dew Point: 59 °F

Location of DifferdangeLocation

Past Weather in Differdange — Graph

°F

Differdange Temperature Yesterday

Maximum temperature yesterday: 73 °F (at 4:20 PM)
Minimum temperature yesterday: 55 °F (at 6:20 AM)
Average temperature yesterday: 65 °F

High & Low Weather Summary for the Past Weeks

 TemperatureHumidityPressure
High91 °F (Jul 20, 3:20 PM)100% (Jul 21, 4:50 AM)30.33 "Hg (Jul 21, 4:50 AM)
Low46 °F (Jul 15, 4:20 AM)26% (Jul 20, 3:50 PM)29.95 "Hg (Jul 20, 4:20 PM)
Average67 °F74%30.13 "Hg
* Reported Jul 13 12:20 PM — Jul 28 12:50 PM, Differdange, Weather by CustomWeather, © 2016

Note: Actual official high and low records may vary slightly from our data, if they occured in-between our weather recording intervals... More about our weather records

Advertising

Differdange Weather History for the Previous 24 Hours

Scroll right to see more
 ConditionsComfort  
Time TempWeatherWind HumidityBarometerVisibility
12:50 PM
Thu, Jul 28
68 °FPartly sunny.10 mph78%30.07 "HgN/A
12:20 PM66 °FSprinkles. Partly sunny.7 mph83%30.07 "HgN/A
11:50 AM66 °FSprinkles. Broken clouds.7 mph83%30.07 "HgN/A
11:20 AM64 °FBroken clouds.6 mph88%30.07 "HgN/A
10:50 AM64 °FSprinkles. Clear.6 mph88%30.07 "HgN/A
10:20 AM63 °FPartly sunny.6 mph94%30.07 "HgN/A
9:50 AM63 °FLight rain. Broken clouds.7 mph88%30.07 "HgN/A
9:20 AM63 °FLight rain. Scattered clouds.6 mph83%30.07 "HgN/A
8:50 AM63 °FLight rain. Partly sunny.7 mph83%30.07 "HgN/A
8:20 AM63 °FPartly sunny.2 mph83%30.04 "HgN/A
7:50 AM61 °FScattered clouds.3 mph88%30.07 "HgN/A
7:20 AM61 °FScattered clouds.2 mph83%30.04 "HgN/A
6:50 AM61 °FPassing clouds.3 mph88%30.04 "HgN/A
6:20 AM61 °FPassing clouds.5 mph83%30.07 "HgN/A
5:50 AM61 °FClear.5 mph83%30.07 "Hg10 mi
5:20 AM61 °FClear.5 mph83%30.07 "Hg10 mi
4:50 AM61 °FOvercast.2 mph88%30.07 "HgN/A
4:20 AM61 °FMostly cloudy.2 mph83%30.07 "HgN/A
3:50 AM63 °FClear.2 mph83%30.07 "Hg10 mi
3:20 AM61 °FOvercast.1 mph83%30.07 "HgN/A
2:50 AM61 °FCool.2 mph88%30.07 "HgN/A
2:20 AM61 °FOvercast.2 mph88%30.07 "HgN/A
1:50 AM63 °FClear.2 mph83%30.09 "Hg10 mi
1:20 AM63 °FClear.3 mph83%30.09 "Hg10 mi
12:50 AM63 °FClear.2 mph83%30.09 "Hg10 mi
12:20 AM63 °FClear.3 mph83%30.09 "Hg10 mi
11:50 PM
Wed, Jul 27
63 °FClear.6 mph83%30.09 "Hg10 mi
11:20 PM64 °FClear.5 mph78%30.09 "Hg10 mi
10:50 PM64 °FClear.5 mph78%30.09 "Hg10 mi
10:20 PM64 °FSunny.3 mph78%30.09 "Hg10 mi
9:50 PM64 °FSunny.3 mph78%30.09 "Hg10 mi
9:20 PM66 °FPassing clouds.6 mph68%30.09 "HgN/A
8:50 PM66 °FPassing clouds.7 mph68%30.07 "HgN/A
8:20 PM68 °FSunny.9 mph64%30.07 "Hg10 mi
7:50 PM70 °FPassing clouds.10 mph60%30.07 "HgN/A
7:20 PM70 °FPassing clouds.10 mph60%30.07 "HgN/A
6:50 PM70 °FPassing clouds.10 mph60%30.07 "HgN/A
6:20 PM70 °FPassing clouds.10 mph60%30.07 "HgN/A
5:50 PM70 °FPassing clouds.14 mph60%30.07 "HgN/A
5:20 PM72 °FPassing clouds.12 mph57%30.07 "HgN/A
4:50 PM72 °FPassing clouds.12 mph53%30.09 "HgN/A
4:20 PM73 °FPassing clouds.12 mph53%30.09 "HgN/A
3:50 PM72 °FPassing clouds.10 mph57%30.09 "HgN/A
3:20 PM72 °FPassing clouds.9 mph57%30.09 "HgN/A
2:50 PM72 °FPassing clouds.9 mph57%30.09 "HgN/A
2:20 PM70 °FPartly sunny.9 mph60%30.09 "HgN/A
Weather by CustomWeather, © 2016

See weather overviewHow to use our weather pages